INTELSAT 36 (IS-36)

Last updated on Fri Apr 18 2025 00:02:41 GMT+0000 (Coordinated Universal Time)

1 41747U 16053A 25107.54753353 -.00000015 00000+0 00000+0 0 9993 2 41747 0.0136 275.5079 0000805 53.6370 142.3824 1.00271014 31685
UTC large
Height (km)
Speed (km/s)
/
Latitude / Longitude
Inclination (degrees)
Orbital Period (minutes)
Azimuth
Elevation
Range (km)
Doppler Factor

Next 0 passes for location: London (51.5072 / 0.1276)

Sorry there are no passes over London.